Time,TemperatureF,DewpointF,PressureIn,WindDirection,WindDirectionDegrees,WindSpeedMPH,WindSpeedGustMPH,Humidity,HourlyPrecipIn,Conditions,Clouds,dailyrainin,SoftwareType,DateUTC
2013-12-04 00:01:00,27.5,-5.4,29.35,SE,128,4.5,4.5,23,0.00,,---,0.00,VWS V14.01,2013-12-04 08:01:00,
2013-12-04 00:06:00,31.5,-7.2,29.35,ESE,105,8.1,8.1,18,0.00,,---,0.00,VWS V14.01,2013-12-04 08:06:00,
2013-12-04 00:11:00,29.5,-8.8,29.35,ESE,112,8.7,8.7,18,0.00,,---,0.00,VWS V14.01,2013-12-04 08:11:00,
2013-12-04 00:16:00,28.2,-6.7,29.35,ESE,108,7.6,7.6,21,0.00,,---,0.00,VWS V14.01,2013-12-04 08:16:00,
2013-12-04 00:21:00,30.0,-8.3,29.35,ESE,118,5.4,5.4,18,0.00,,---,0.00,VWS V14.01,2013-12-04 08:21:00,
2013-12-04 00:28:00,29.1,-9.1,29.35,ESE,110,5.8,5.8,18,0.00,,---,0.00,VWS V14.01,2013-12-04 08:28:00,
2013-12-04 00:33:00,30.6,-7.9,29.35,SE,146,4.5,5.8,18,0.00,,---,0.00,VWS V14.01,2013-12-04 08:33:00,
2013-12-04 00:38:00,27.9,-7.0,29.35,East,91,3.1,3.1,21,0.00,,---,0.00,VWS V14.01,2013-12-04 08:38:00,
2013-12-04 00:43:00,27.3,-7.4,29.35,ESE,113,3.6,4.0,21,0.00,,---,0.00,VWS V14.01,2013-12-04 08:43:00,
2013-12-04 00:48:00,27.0,-5.9,29.35,SE,132,4.0,5.4,23,0.00,,---,0.00,VWS V14.01,2013-12-04 08:48:00,
2013-12-04 00:53:00,27.3,-7.4,29.35,SE,125,5.4,5.4,21,0.00,,---,0.00,VWS V14.01,2013-12-04 08:53:00,
2013-12-04 00:58:00,27.3,-7.4,29.35,SE,126,5.4,5.4,21,0.00,,---,0.00,VWS V14.01,2013-12-04 08:58:00,
2013-12-04 01:03:00,28.8,-9.4,29.35,SE,135,5.4,5.4,18,0.00,,---,0.00,VWS V14.01,2013-12-04 09:03:00,
2013-12-04 01:08:00,28.8,-9.4,29.35,ESE,111,7.6,7.6,18,0.00,,---,0.00,VWS V14.01,2013-12-04 09:08:00,
2013-12-04 01:13:00,28.8,-9.4,29.35,ESE,107,4.0,4.0,18,0.00,,---,0.00,VWS V14.01,2013-12-04 09:13:00,
2013-12-04 01:18:00,27.7,-7.2,29.35,ESE,103,6.3,6.3,21,0.00,,---,0.00,VWS V14.01,2013-12-04 09:18:00,
2013-12-04 01:23:00,28.6,-9.5,29.35,ESE,109,8.1,8.1,18,0.00,,---,0.00,VWS V14.01,2013-12-04 09:23:00,
2013-12-04 01:28:00,27.1,-7.6,29.35,SE,128,5.4,5.4,21,0.00,,---,0.00,VWS V14.01,2013-12-04 09:28:00,
2013-12-04 01:33:00,27.1,-7.6,29.35,ESE,106,7.6,8.1,21,0.00,,---,0.00,VWS V14.01,2013-12-04 09:33:00,
2013-12-04 01:38:00,26.1,-8.5,29.35,ESE,106,7.6,7.6,21,0.00,,---,0.00,VWS V14.01,2013-12-04 09:38:00,
2013-12-04 01:43:00,25.3,-4.7,29.35,ESE,114,5.4,5.4,26,0.00,,---,0.00,VWS V14.01,2013-12-04 09:43:00,
2013-12-04 01:48:00,26.1,-5.8,29.35,ESE,112,5.4,5.4,24,0.00,,---,0.00,VWS V14.01,2013-12-04 09:48:00,
2013-12-04 01:53:00,25.3,-0.4,29.35,ESE,114,5.4,5.8,32,0.00,,---,0.00,VWS V14.01,2013-12-04 09:53:00,
2013-12-04 01:58:00,25.7,-0.7,29.35,ESE,117,5.4,5.4,31,0.00,,---,0.00,VWS V14.01,2013-12-04 09:58:00,
2013-12-04 02:03:00,26.1,-1.8,29.35,ESE,103,5.4,5.4,29,0.00,,---,0.00,VWS V14.01,2013-12-04 10:03:00,
2013-12-04 02:08:00,25.9,-2.0,29.35,ESE,111,7.6,7.6,29,0.00,,---,0.00,VWS V14.01,2013-12-04 10:08:00,
2013-12-04 02:13:00,25.7,-2.2,29.35,ESE,118,5.8,5.8,29,0.00,,---,0.00,VWS V14.01,2013-12-04 10:13:00,
2013-12-04 02:18:00,25.5,-0.9,29.35,ESE,115,7.2,7.2,31,0.00,,---,0.00,VWS V14.01,2013-12-04 10:18:00,
2013-12-04 02:23:00,25.0,-0.7,29.35,SE,125,4.0,4.0,32,0.00,,---,0.00,VWS V14.01,2013-12-04 10:23:00,
2013-12-04 02:28:00,25.9,-0.6,29.35,ESE,108,7.6,7.6,31,0.00,,---,0.00,VWS V14.01,2013-12-04 10:28:00,
2013-12-04 02:33:00,25.3,-1.1,29.35,ESE,114,6.3,6.3,31,0.00,,---,0.00,VWS V14.01,2013-12-04 10:33:00,
2013-12-04 02:38:00,25.2,-1.2,29.35,ESE,111,8.1,8.1,31,0.00,,---,0.00,VWS V14.01,2013-12-04 10:38:00,
2013-12-04 02:43:00,25.7,-2.2,29.35,ESE,112,8.7,8.7,29,0.00,,---,0.00,VWS V14.01,2013-12-04 10:43:00,
2013-12-04 02:48:00,26.1,-5.8,29.35,ESE,116,5.4,5.4,24,0.00,,---,0.00,VWS V14.01,2013-12-04 10:48:00,
2013-12-04 02:53:00,25.3,-2.5,29.35,SSE,150,7.6,7.6,29,0.00,,---,0.00,VWS V14.01,2013-12-04 10:53:00,
2013-12-04 02:58:00,24.8,-0.9,29.35,East,100,5.8,5.8,32,0.00,,---,0.00,VWS V14.01,2013-12-04 10:58:00,
2013-12-04 03:03:00,25.3,-2.5,29.35,ESE,110,5.8,5.8,29,0.00,,---,0.00,VWS V14.01,2013-12-04 11:03:00,
2013-12-04 03:08:00,25.3,-2.5,29.35,ESE,113,4.9,4.9,29,0.00,,---,0.00,VWS V14.01,2013-12-04 11:08:00,
2013-12-04 03:13:00,24.3,-0.7,29.35,ESE,105,5.8,5.8,33,0.00,,---,0.00,VWS V14.01,2013-12-04 11:13:00,
2013-12-04 03:18:00,24.8,-0.9,29.35,ESE,112,6.3,6.3,32,0.00,,---,0.00,VWS V14.01,2013-12-04 11:18:00,
2013-12-04 03:23:00,23.9,-1.7,29.35,ESE,112,5.4,5.4,32,0.00,,---,0.00,VWS V14.01,2013-12-04 11:23:00,
2013-12-04 03:28:00,24.1,-1.5,29.35,ESE,123,4.0,4.0,32,0.00,,---,0.00,VWS V14.01,2013-12-04 11:28:00,
2013-12-04 03:33:00,24.1,-1.5,29.35,SE,124,5.8,5.8,32,0.00,,---,0.00,VWS V14.01,2013-12-04 11:33:00,
2013-12-04 03:38:00,25.0,-1.4,29.35,ESE,117,4.0,6.3,31,0.00,,---,0.00,VWS V14.01,2013-12-04 11:38:00,
2013-12-04 03:43:00,25.0,-1.4,29.35,ESE,105,5.4,5.4,31,0.00,,---,0.00,VWS V14.01,2013-12-04 11:43:00,
2013-12-04 03:48:00,24.6,-3.1,29.35,ESE,117,6.7,6.7,29,0.00,,---,0.00,VWS V14.01,2013-12-04 11:48:00,
2013-12-04 03:53:00,25.0,-2.8,29.35,SE,128,4.0,5.4,29,0.00,,---,0.00,VWS V14.01,2013-12-04 11:53:00,
2013-12-04 03:58:00,25.0,-2.8,29.35,ESE,116,6.3,7.6,29,0.00,,---,0.00,VWS V14.01,2013-12-04 11:58:00,
2013-12-04 04:03:00,24.1,-1.5,29.35,ESE,116,6.3,6.3,32,0.00,,---,0.00,VWS V14.01,2013-12-04 12:03:00,
2013-12-04 04:08:00,24.1,-1.5,29.35,SE,126,4.5,4.5,32,0.00,,---,0.00,VWS V14.01,2013-12-04 12:08:00,
2013-12-04 04:13:00,25.5,-4.6,29.35,SE,127,4.0,4.0,26,0.00,,---,0.00,VWS V14.01,2013-12-04 12:13:00,
2013-12-04 04:18:00,24.8,-0.9,29.35,ESE,121,5.4,5.4,32,0.00,,---,0.00,VWS V14.01,2013-12-04 12:18:00,
2013-12-04 04:23:00,24.3,-1.3,29.35,ESE,113,5.8,7.6,32,0.00,,---,0.00,VWS V14.01,2013-12-04 12:23:00,
2013-12-04 04:28:00,23.9,-1.0,29.35,ESE,117,7.2,7.2,33,0.00,,---,0.00,VWS V14.01,2013-12-04 12:28:00,
2013-12-04 04:33:00,25.2,-0.5,29.35,ESE,117,5.4,6.3,32,0.00,,---,0.00,VWS V14.01,2013-12-04 12:33:00,
2013-12-04 04:38:00,24.4,-1.2,29.35,ESE,117,5.4,5.4,32,0.00,,---,0.00,VWS V14.01,2013-12-04 12:38:00,
2013-12-04 04:43:00,24.4,-1.2,29.35,ESE,115,5.8,5.8,32,0.00,,---,0.00,VWS V14.01,2013-12-04 12:43:00,
2013-12-04 04:48:00,25.2,-0.5,29.35,ESE,109,5.4,6.3,32,0.00,,---,0.00,VWS V14.01,2013-12-04 12:48:00,
2013-12-04 04:53:00,25.3,-1.1,29.35,ESE,106,5.4,5.4,31,0.00,,---,0.00,VWS V14.01,2013-12-04 12:53:00,
2013-12-04 04:58:00,25.0,-1.4,29.35,ESE,103,5.4,5.4,31,0.00,,---,0.00,VWS V14.01,2013-12-04 12:58:00,
2013-12-04 05:03:00,22.6,-2.1,29.35,ESE,109,0.0,0.0,33,0.00,,---,0.00,VWS V14.01,2013-12-04 13:03:00,
2013-12-04 05:08:00,21.7,-2.9,29.35,ESE,109,0.0,0.0,33,0.00,,---,0.00,VWS V14.01,2013-12-04 13:08:00,
2013-12-04 05:13:00,22.6,-1.5,29.35,East,100,0.0,0.0,34,0.00,,---,0.00,VWS V14.01,2013-12-04 13:13:00,
2013-12-04 05:18:00,22.6,-1.5,29.35,SE,127,3.1,3.1,34,0.00,,---,0.00,VWS V14.01,2013-12-04 13:18:00,
2013-12-04 05:23:00,24.6,-1.0,29.35,ESE,116,3.1,4.0,32,0.00,,---,0.00,VWS V14.01,2013-12-04 13:23:00,
2013-12-04 05:28:00,25.2,-2.6,29.35,SE,136,2.7,2.7,29,0.00,,---,0.00,VWS V14.01,2013-12-04 13:28:00,
2013-12-04 05:33:00,25.0,-2.8,29.35,SE,135,0.0,0.0,29,0.00,,---,0.00,VWS V14.01,2013-12-04 13:33:00,
2013-12-04 05:38:00,23.7,-1.8,29.35,SE,135,0.0,0.0,32,0.00,,---,0.00,VWS V14.01,2013-12-04 13:38:00,
2013-12-04 05:43:00,23.7,-1.8,29.35,East,94,0.0,2.7,32,0.00,,---,0.00,VWS V14.01,2013-12-04 13:43:00,
2013-12-04 05:48:00,22.8,-2.0,29.35,East,92,3.1,3.1,33,0.00,,---,0.00,VWS V14.01,2013-12-04 13:48:00,
2013-12-04 05:53:00,22.8,-2.0,29.35,East,93,4.0,5.8,33,0.00,,---,0.00,VWS V14.01,2013-12-04 13:53:00,
2013-12-04 05:58:00,21.9,-2.8,29.35,ESE,103,3.6,4.0,33,0.00,,---,0.00,VWS V14.01,2013-12-04 13:58:00,
2013-12-04 06:03:00,22.1,-2.6,29.35,ESE,113,5.4,5.4,33,0.00,,---,0.00,VWS V14.01,2013-12-04 14:03:00,
2013-12-04 06:08:00,23.0,-1.8,29.35,ESE,113,4.0,4.9,33,0.00,,---,0.00,VWS V14.01,2013-12-04 14:08:00,
2013-12-04 06:13:00,23.5,-2.0,29.35,South,172,0.0,0.0,32,0.00,,---,0.00,VWS V14.01,2013-12-04 14:13:00,
2013-12-04 06:18:00,22.1,-2.6,29.35,ESE,109,5.8,5.8,33,0.00,,---,0.00,VWS V14.01,2013-12-04 14:18:00,
2013-12-04 06:23:00,23.0,-1.8,29.35,ESE,109,5.8,5.8,33,0.00,,---,0.00,VWS V14.01,2013-12-04 14:23:00,
2013-12-04 06:28:00,23.5,-2.0,29.35,ESE,113,5.4,5.4,32,0.00,,---,0.00,VWS V14.01,2013-12-04 14:28:00,
2013-12-04 06:33:00,23.5,-2.0,29.35,ESE,111,3.6,3.6,32,0.00,,---,0.00,VWS V14.01,2013-12-04 14:33:00,
2013-12-04 06:39:00,22.8,-2.0,29.35,SSW,210,0.0,0.0,33,0.00,,---,0.00,VWS V14.01,2013-12-04 14:39:00,
2013-12-04 06:44:00,22.8,-2.0,29.35,SSW,210,0.0,0.0,33,0.00,,---,0.00,VWS V14.01,2013-12-04 14:44:00,
2013-12-04 06:49:00,20.8,-0.8,29.35,SSW,210,0.0,0.0,38,0.00,,---,0.00,VWS V14.01,2013-12-04 14:49:00,
2013-12-04 06:54:00,21.4,-0.3,29.35,ESE,113,3.6,4.0,38,0.00,,---,0.00,VWS V14.01,2013-12-04 14:54:00,
2013-12-04 06:59:00,21.4,-0.3,29.35,SE,135,3.1,3.6,38,0.00,,---,0.00,VWS V14.01,2013-12-04 14:59:00,
2013-12-04 07:04:00,21.6,-2.5,29.35,SE,135,0.0,0.0,34,0.00,,---,0.00,VWS V14.01,2013-12-04 15:04:00,
2013-12-04 07:09:00,20.1,-1.4,29.38,SE,135,0.0,0.0,38,0.00,,---,0.00,VWS V14.01,2013-12-04 15:09:00,
2013-12-04 07:14:00,20.3,-1.2,29.38,SW,232,0.0,0.0,38,0.00,,---,0.00,VWS V14.01,2013-12-04 15:14:00,
2013-12-04 07:19:00,20.3,-0.7,29.38,SW,232,0.0,0.0,39,0.00,,---,0.00,VWS V14.01,2013-12-04 15:19:00,
2013-12-04 07:24:00,20.1,-0.9,29.35,SW,232,0.0,0.0,39,0.00,,---,0.00,VWS V14.01,2013-12-04 15:24:00,
2013-12-04 07:29:00,20.5,0.0,29.35,SW,232,0.0,0.0,40,0.00,,---,0.00,VWS V14.01,2013-12-04 15:29:00,
2013-12-04 07:34:00,20.7,1.2,29.35,SW,232,0.0,0.0,42,0.00,,---,0.00,VWS V14.01,2013-12-04 15:34:00,
2013-12-04 07:39:00,20.3,1.4,29.35,SW,232,0.0,0.0,43,0.00,,---,0.00,VWS V14.01,2013-12-04 15:39:00,
2013-12-04 07:44:00,20.1,1.2,29.35,SW,232,0.0,0.0,43,0.00,,---,0.00,VWS V14.01,2013-12-04 15:44:00,
2013-12-04 07:49:00,19.2,0.4,29.35,SW,232,0.0,0.0,43,0.00,,---,0.00,VWS V14.01,2013-12-04 15:49:00,
2013-12-04 07:54:00,19.2,0.4,29.38,ENE,69,0.0,0.0,43,0.00,,---,0.00,VWS V14.01,2013-12-04 15:54:00,
2013-12-04 07:59:00,25.5,6.2,29.38,ENE,69,0.0,0.0,43,0.00,,---,0.00,VWS V14.01,2013-12-04 15:59:00,
2013-12-04 08:04:00,27.5,6.9,29.38,ENE,69,0.0,0.0,41,0.00,,---,0.00,VWS V14.01,2013-12-04 16:04:00,
2013-12-04 08:09:00,28.9,5.9,29.38,NE,50,3.1,3.6,37,0.00,,---,0.00,VWS V14.01,2013-12-04 16:09:00,
2013-12-04 08:14:00,34.3,-2.6,29.38,WSW,251,2.7,3.1,20,0.00,,---,0.00,VWS V14.01,2013-12-04 16:14:00,
2013-12-04 08:19:00,34.7,-2.3,29.38,ESE,107,0.0,0.0,20,0.00,,---,0.00,VWS V14.01,2013-12-04 16:19:00,
2013-12-04 08:24:00,35.4,-5.1,29.38,NE,55,2.7,3.6,17,0.00,,---,0.00,VWS V14.01,2013-12-04 16:24:00,
2013-12-04 08:29:00,35.4,-5.1,29.38,NNE,15,3.1,3.1,17,0.00,,---,0.00,VWS V14.01,2013-12-04 16:29:00,
2013-12-04 08:34:00,40.3,-2.3,29.38,NE,40,4.9,4.9,16,0.00,,---,0.00,VWS V14.01,2013-12-04 16:34:00,
2013-12-04 08:39:00,39.9,-2.6,29.38,NE,46,3.1,4.0,16,0.00,,---,0.00,VWS V14.01,2013-12-04 16:39:00,
2013-12-04 08:44:00,40.1,-2.5,29.38,NE,46,3.1,3.6,16,0.00,,---,0.00,VWS V14.01,2013-12-04 16:44:00,
2013-12-04 08:49:00,42.1,-0.9,29.38,NE,46,3.1,3.1,16,0.00,,---,0.00,VWS V14.01,2013-12-04 16:49:00,
2013-12-04 08:54:00,42.1,-0.9,29.38,NE,41,4.0,6.3,16,0.00,,---,0.00,VWS V14.01,2013-12-04 16:54:00,
2013-12-04 08:59:00,46.8,0.1,29.38,NE,35,3.1,3.1,14,0.00,,---,0.00,VWS V14.01,2013-12-04 16:59:00,
2013-12-04 09:04:00,48.4,1.4,29.38,NE,44,2.2,2.7,14,0.00,,---,0.00,VWS V14.01,2013-12-04 17:04:00,
2013-12-04 09:09:00,49.1,2.0,29.38,NE,45,0.0,0.0,14,0.00,,---,0.00,VWS V14.01,2013-12-04 17:09:00,
2013-12-04 09:14:00,50.2,2.8,29.38,NE,44,0.0,0.0,14,0.00,,---,0.00,VWS V14.01,2013-12-04 17:14:00,
2013-12-04 09:19:00,50.2,2.8,29.38,NE,44,0.0,0.0,14,0.00,,---,0.00,VWS V14.01,2013-12-04 17:19:00,
2013-12-04 09:24:00,52.3,3.0,29.38,NE,44,0.0,0.0,13,0.00,,---,0.00,VWS V14.01,2013-12-04 17:24:00,
2013-12-04 09:29:00,52.3,3.0,29.38,NE,50,0.0,0.0,13,0.00,,---,0.00,VWS V14.01,2013-12-04 17:29:00,
2013-12-04 09:34:00,52.3,3.0,29.38,ENE,77,3.1,3.1,13,0.00,,---,0.00,VWS V14.01,2013-12-04 17:34:00,
2013-12-04 09:39:00,49.6,2.4,29.38,NE,37,0.0,0.0,14,0.00,,---,0.00,VWS V14.01,2013-12-04 17:39:00,
2013-12-04 09:44:00,50.7,3.3,29.38,NE,41,2.7,2.7,14,0.00,,---,0.00,VWS V14.01,2013-12-04 17:44:00,
2013-12-04 09:49:00,52.3,3.0,29.38,NE,41,0.0,0.0,13,0.00,,---,0.00,VWS V14.01,2013-12-04 17:49:00,
2013-12-04 09:54:00,52.3,3.0,29.38,ENE,60,3.1,4.0,13,0.00,,---,0.00,VWS V14.01,2013-12-04 17:54:00,
2013-12-04 09:59:00,50.9,3.4,29.38,NE,43,3.6,3.6,14,0.00,,---,0.00,VWS V14.01,2013-12-04 17:59:00,
2013-12-04 10:04:00,50.4,3.0,29.38,NE,38,3.1,4.0,14,0.00,,---,0.00,VWS V14.01,2013-12-04 18:04:00,
2013-12-04 10:09:00,50.0,2.7,29.38,NE,49,4.9,4.9,14,0.00,,---,0.00,VWS V14.01,2013-12-04 18:09:00,
2013-12-04 10:14:00,49.8,2.5,29.38,NE,48,2.7,4.9,14,0.00,,---,0.00,VWS V14.01,2013-12-04 18:14:00,
2013-12-04 10:19:00,50.5,3.1,29.38,NNE,25,4.0,4.0,14,0.00,,---,0.00,VWS V14.01,2013-12-04 18:19:00,
2013-12-04 10:24:00,50.5,3.1,29.38,NE,42,3.1,3.1,14,0.00,,---,0.00,VWS V14.01,2013-12-04 18:24:00,
2013-12-04 10:29:00,51.8,2.5,29.38,NE,35,4.9,4.9,13,0.00,,---,0.00,VWS V14.01,2013-12-04 18:29:00,
2013-12-04 10:34:00,52.0,2.7,29.38,NE,37,4.9,4.9,13,0.00,,---,0.00,VWS V14.01,2013-12-04 18:34:00,
2013-12-04 10:39:00,52.7,3.2,29.38,NE,38,4.0,4.0,13,0.00,,---,0.00,VWS V14.01,2013-12-04 18:39:00,
2013-12-04 10:44:00,51.4,3.8,29.38,NE,48,5.4,5.4,14,0.00,,---,0.00,VWS V14.01,2013-12-04 18:44:00,
2013-12-04 10:49:00,51.4,3.8,29.38,NE,50,4.9,4.9,14,0.00,,---,0.00,VWS V14.01,2013-12-04 18:49:00,
2013-12-04 10:54:00,50.7,3.3,29.38,ENE,69,4.0,4.0,14,0.00,,---,0.00,VWS V14.01,2013-12-04 18:54:00,
2013-12-04 10:59:00,50.5,3.1,29.38,NE,56,0.0,0.0,14,0.00,,---,0.00,VWS V14.01,2013-12-04 18:59:00,
2013-12-04 11:04:00,50.5,3.1,29.38,NNE,27,4.0,4.9,14,0.00,,---,0.00,VWS V14.01,2013-12-04 19:04:00,
2013-12-04 11:09:00,51.8,2.5,29.38,NE,41,4.5,4.5,13,0.00,,---,0.00,VWS V14.01,2013-12-04 19:09:00,
2013-12-04 11:14:00,52.0,2.7,29.38,NE,49,5.8,5.8,13,0.00,,---,0.00,VWS V14.01,2013-12-04 19:14:00,
2013-12-04 11:19:00,52.5,3.1,29.38,NE,39,5.4,5.4,13,0.00,,---,0.00,VWS V14.01,2013-12-04 19:19:00,
2013-12-04 11:24:00,51.6,4.0,29.35,NE,36,5.4,5.8,14,0.00,,---,0.00,VWS V14.01,2013-12-04 19:24:00,
2013-12-04 11:29:00,50.7,3.3,29.35,NE,43,6.3,6.3,14,0.00,,---,0.00,VWS V14.01,2013-12-04 19:29:00,
2013-12-04 11:34:00,49.3,2.1,29.35,NE,55,5.4,5.4,14,0.00,,---,0.00,VWS V14.01,2013-12-04 19:34:00,
2013-12-04 11:39:00,48.9,1.8,29.35,NE,41,6.3,6.3,14,0.00,,---,0.00,VWS V14.01,2013-12-04 19:39:00,
2013-12-04 11:44:00,48.9,1.8,29.35,NE,41,6.3,6.3,14,0.00,,---,0.00,VWS V14.01,2013-12-04 19:44:00,
2013-12-04 11:49:00,47.3,-2.7,29.35,NNE,32,6.3,6.3,12,0.00,,---,0.00,VWS V14.01,2013-12-04 19:49:00,
2013-12-04 11:54:00,47.3,-2.7,29.35,NE,48,7.6,7.6,12,0.00,,---,0.00,VWS V14.01,2013-12-04 19:54:00,
2013-12-04 11:59:00,45.5,-4.2,29.35,NNE,31,7.6,7.6,12,0.00,,---,0.00,VWS V14.01,2013-12-04 19:59:00,
2013-12-04 12:04:00,45.5,-4.2,29.35,NE,39,5.4,8.7,12,0.00,,---,0.00,VWS V14.01,2013-12-04 20:04:00,
2013-12-04 12:09:00,45.7,-4.0,29.35,NE,44,6.3,6.3,12,0.00,,---,0.00,VWS V14.01,2013-12-04 20:09:00,
2013-12-04 12:14:00,46.4,-3.4,29.35,NE,53,7.6,8.3,12,0.00,,---,0.00,VWS V14.01,2013-12-04 20:14:00,
2013-12-04 12:19:00,46.6,-3.3,29.35,NE,56,5.4,5.4,12,0.00,,---,0.00,VWS V14.01,2013-12-04 20:19:00,
2013-12-04 12:24:00,47.1,-2.9,29.35,NE,39,6.3,6.3,12,0.00,,---,0.00,VWS V14.01,2013-12-04 20:24:00,
2013-12-04 12:29:00,46.4,-3.4,29.35,NNE,28,6.3,7.6,12,0.00,,---,0.00,VWS V14.01,2013-12-04 20:29:00,
2013-12-04 12:34:00,45.3,-4.3,29.35,ENE,72,6.3,8.1,12,0.00,,---,0.00,VWS V14.01,2013-12-04 20:34:00,
2013-12-04 12:39:00,45.3,-4.3,29.35,NE,39,5.8,5.8,12,0.00,,---,0.00,VWS V14.01,2013-12-04 20:39:00,
2013-12-04 12:44:00,45.1,-4.4,29.35,NE,50,6.3,6.3,12,0.00,,---,0.00,VWS V14.01,2013-12-04 20:44:00,
2013-12-04 12:49:00,45.9,-3.9,29.35,NE,38,5.8,5.8,12,0.00,,---,0.00,VWS V14.01,2013-12-04 20:49:00,
2013-12-04 12:54:00,46.2,-3.6,29.35,NE,43,7.6,7.6,12,0.00,,---,0.00,VWS V14.01,2013-12-04 20:54:00,
2013-12-04 12:59:00,46.2,-3.6,29.35,ENE,62,5.8,5.8,12,0.00,,---,0.00,VWS V14.01,2013-12-04 20:59:00,
2013-12-04 13:04:00,45.5,-4.2,29.35,NE,54,7.6,7.6,12,0.00,,---,0.00,VWS V14.01,2013-12-04 21:04:00,
2013-12-04 13:09:00,45.7,-4.0,29.35,NE,47,6.3,6.3,12,0.00,,---,0.00,VWS V14.01,2013-12-04 21:09:00,
2013-12-04 13:14:00,44.2,-3.5,29.35,NE,39,7.6,7.6,13,0.00,,---,0.00,VWS V14.01,2013-12-04 21:14:00,
2013-12-04 13:19:00,43.2,-4.3,29.35,NNE,31,4.0,4.0,13,0.00,,---,0.00,VWS V14.01,2013-12-04 21:19:00,
2013-12-04 13:24:00,42.6,-4.8,29.35,NE,36,5.8,5.8,13,0.00,,---,0.00,VWS V14.01,2013-12-04 21:24:00,
2013-12-04 13:29:00,44.1,-3.6,29.35,NE,47,8.1,8.1,13,0.00,,---,0.00,VWS V14.01,2013-12-04 21:29:00,
2013-12-04 13:34:00,43.9,-3.8,29.35,NE,37,5.8,5.8,13,0.00,,---,0.00,VWS V14.01,2013-12-04 21:34:00,
2013-12-04 13:39:00,43.7,-3.9,29.35,NE,40,6.3,6.3,13,0.00,,---,0.00,VWS V14.01,2013-12-04 21:39:00,
2013-12-04 13:44:00,44.1,-3.6,29.35,ENE,63,6.3,6.3,13,0.00,,---,0.00,VWS V14.01,2013-12-04 21:44:00,
2013-12-04 13:49:00,44.1,-3.6,29.35,NE,37,5.4,5.4,13,0.00,,---,0.00,VWS V14.01,2013-12-04 21:49:00,
2013-12-04 13:54:00,42.6,-4.8,29.35,NE,37,8.3,8.3,13,0.00,,---,0.00,VWS V14.01,2013-12-04 21:54:00,
2013-12-04 13:59:00,43.5,-4.1,29.35,NE,39,5.8,5.8,13,0.00,,---,0.00,VWS V14.01,2013-12-04 21:59:00,
2013-12-04 14:04:00,40.8,-6.2,29.35,NE,39,5.8,5.8,13,0.00,,---,0.00,VWS V14.01,2013-12-04 22:04:00,
2013-12-04 14:09:00,41.9,-5.3,29.35,NE,41,6.3,6.3,13,0.00,,---,0.00,VWS V14.01,2013-12-04 22:09:00,
2013-12-04 14:14:00,41.9,-5.3,29.35,ENE,61,6.3,6.3,13,0.00,,---,0.00,VWS V14.01,2013-12-04 22:14:00,
2013-12-04 14:19:00,43.3,-4.2,29.35,ENE,62,6.3,6.3,13,0.00,,---,0.00,VWS V14.01,2013-12-04 22:19:00,
2013-12-04 14:24:00,43.7,-3.9,29.35,NE,34,6.3,6.3,13,0.00,,---,0.00,VWS V14.01,2013-12-04 22:24:00,
2013-12-04 14:29:00,43.0,-4.5,29.35,NE,41,5.8,5.8,13,0.00,,---,0.00,VWS V14.01,2013-12-04 22:29:00,
2013-12-04 14:34:00,42.6,-4.8,29.35,ENE,65,8.3,8.3,13,0.00,,---,0.00,VWS V14.01,2013-12-04 22:34:00,
2013-12-04 14:39:00,42.6,-4.8,29.35,NE,55,7.2,7.2,13,0.00,,---,0.00,VWS V14.01,2013-12-04 22:39:00,
2013-12-04 14:44:00,42.6,-4.8,29.32,NNE,23,5.4,5.4,13,0.00,,---,0.00,VWS V14.01,2013-12-04 22:44:00,
2013-12-04 14:49:00,39.9,-6.9,29.32,ENE,63,5.4,5.4,13,0.00,,---,0.00,VWS V14.01,2013-12-04 22:49:00,
2013-12-04 14:54:00,39.4,-7.4,29.32,ENE,60,4.5,4.5,13,0.00,,---,0.00,VWS V14.01,2013-12-04 22:54:00,
2013-12-04 14:59:00,37.9,-7.0,29.32,ENE,67,4.0,4.0,14,0.00,,---,0.00,VWS V14.01,2013-12-04 22:59:00,
2013-12-04 15:04:00,37.9,-7.0,29.32,North,1,4.9,4.9,14,0.00,,---,0.00,VWS V14.01,2013-12-04 23:04:00,
2013-12-04 15:09:00,37.9,-7.0,29.32,ESE,103,3.6,3.6,14,0.00,,---,0.00,VWS V14.01,2013-12-04 23:09:00,
2013-12-04 15:14:00,36.9,-7.9,29.32,ENE,64,5.4,5.4,14,0.00,,---,0.00,VWS V14.01,2013-12-04 23:14:00,
2013-12-04 15:19:00,36.5,-8.2,29.32,NNE,20,5.8,5.8,14,0.00,,---,0.00,VWS V14.01,2013-12-04 23:19:00,
2013-12-04 15:24:00,36.1,-8.4,29.32,NE,45,3.6,3.6,14,0.00,,---,0.00,VWS V14.01,2013-12-04 23:24:00,
2013-12-04 15:29:00,35.4,-7.6,29.32,NNE,31,4.9,4.9,15,0.00,,---,0.00,VWS V14.01,2013-12-04 23:29:00,
2013-12-04 15:34:00,35.4,-7.6,29.32,NNE,31,4.9,4.9,15,0.00,,---,0.00,VWS V14.01,2013-12-04 23:34:00,
2013-12-04 15:39:00,35.4,-7.6,29.32,NNE,30,6.3,6.3,15,0.00,,---,0.00,VWS V14.01,2013-12-04 23:39:00,
2013-12-04 15:44:00,34.5,-8.4,29.32,NE,37,3.6,3.6,15,0.00,,---,0.00,VWS V14.01,2013-12-04 23:44:00,
2013-12-04 15:49:00,34.0,-8.8,29.32,NE,45,3.1,3.1,15,0.00,,---,0.00,VWS V14.01,2013-12-04 23:49:00,
2013-12-04 15:54:00,34.0,-8.8,29.32,NE,42,4.5,5.4,15,0.00,,---,0.00,VWS V14.01,2013-12-04 23:54:00,
2013-12-04 15:59:00,33.1,-9.5,29.32,NE,43,4.0,4.0,15,0.00,,---,0.00,VWS V14.01,2013-12-04 23:59:00,
2013-12-04 16:04:00,33.1,-9.5,29.32,NE,43,4.9,4.9,15,0.00,,---,0.00,VWS V14.01,2013-12-05 00:04:00,
2013-12-04 16:09:00,32.4,-10.1,29.32,NE,35,4.0,4.0,15,0.00,,---,0.00,VWS V14.01,2013-12-05 00:09:00,
2013-12-04 16:14:00,32.0,-10.4,29.32,NE,35,4.0,4.0,15,0.00,,---,0.00,VWS V14.01,2013-12-05 00:14:00,
2013-12-04 16:19:00,31.8,-10.6,29.32,NE,43,3.6,4.0,15,0.00,,---,0.00,VWS V14.01,2013-12-05 00:19:00,
2013-12-04 16:24:00,31.8,-10.6,29.32,NNE,23,3.6,3.6,15,0.00,,---,0.00,VWS V14.01,2013-12-05 00:24:00,
2013-12-04 16:29:00,31.8,-10.6,29.32,NE,37,3.6,3.6,15,0.00,,---,0.00,VWS V14.01,2013-12-05 00:29:00,
2013-12-04 16:34:00,29.8,-12.2,29.32,NNE,33,4.0,4.0,15,0.00,,---,0.00,VWS V14.01,2013-12-05 00:34:00,
2013-12-04 16:39:00,29.5,-12.5,29.32,NE,34,4.5,4.5,15,0.00,,---,0.00,VWS V14.01,2013-12-05 00:39:00,
2013-12-04 16:44:00,29.3,-12.6,29.32,NNE,32,4.0,5.8,15,0.00,,---,0.00,VWS V14.01,2013-12-05 00:44:00,
2013-12-04 16:49:00,29.1,-9.1,29.32,NE,36,5.8,5.8,18,0.00,,---,0.00,VWS V14.01,2013-12-05 00:49:00,
2013-12-04 16:54:00,28.8,-9.4,29.32,ESE,104,5.8,5.8,18,0.00,,---,0.00,VWS V14.01,2013-12-05 00:54:00,
2013-12-04 16:59:00,29.3,-8.9,29.32,NE,48,5.4,5.4,18,0.00,,---,0.00,VWS V14.01,2013-12-05 00:59:00,
2013-12-04 17:04:00,29.3,-8.9,29.32,NE,48,5.4,5.4,18,0.00,,---,0.00,VWS V14.01,2013-12-05 01:04:00,
2013-12-04 17:10:00,29.1,-9.1,29.32,NE,52,2.7,2.7,18,0.00,,---,0.00,VWS V14.01,2013-12-05 01:10:00,
2013-12-04 17:15:00,29.3,-8.9,29.32,ESE,111,3.6,4.0,18,0.00,,---,0.00,VWS V14.01,2013-12-05 01:15:00,
2013-12-04 17:20:00,29.3,-8.9,29.32,ESE,111,3.6,3.6,18,0.00,,---,0.00,VWS V14.01,2013-12-05 01:20:00,
2013-12-04 17:25:00,28.2,-9.8,29.32,NNE,32,3.6,3.6,18,0.00,,---,0.00,VWS V14.01,2013-12-05 01:25:00,
2013-12-04 17:30:00,28.0,-10.0,29.32,NNE,31,5.4,5.4,18,0.00,,---,0.00,VWS V14.01,2013-12-05 01:30:00,
2013-12-04 17:35:00,27.3,-10.6,29.32,NNE,26,3.6,5.4,18,0.00,,---,0.00,VWS V14.01,2013-12-05 01:35:00,
2013-12-04 17:40:00,27.3,-10.6,29.32,ESE,104,2.7,2.7,18,0.00,,---,0.00,VWS V14.01,2013-12-05 01:40:00,
2013-12-04 17:45:00,28.6,-9.5,29.32,East,101,2.7,2.7,18,0.00,,---,0.00,VWS V14.01,2013-12-05 01:45:00,
2013-12-04 17:50:00,29.7,-8.6,29.32,East,86,3.1,3.1,18,0.00,,---,0.00,VWS V14.01,2013-12-05 01:50:00,
2013-12-04 17:55:00,30.7,-7.7,29.32,East,86,3.1,3.1,18,0.00,,---,0.00,VWS V14.01,2013-12-05 01:55:00,
2013-12-04 18:00:00,31.1,-7.4,29.32,ESE,106,5.4,5.4,18,0.00,,---,0.00,VWS V14.01,2013-12-05 02:00:00,
2013-12-04 18:05:00,31.1,-7.4,29.32,ESE,121,5.4,5.4,18,0.00,,---,0.00,VWS V14.01,2013-12-05 02:05:00,
2013-12-04 18:10:00,31.1,-7.4,29.32,East,83,4.0,7.6,18,0.00,,---,0.00,VWS V14.01,2013-12-05 02:10:00,
2013-12-04 18:15:00,30.7,-7.7,29.32,ESE,109,6.3,6.3,18,0.00,,---,0.00,VWS V14.01,2013-12-05 02:15:00,
2013-12-04 18:20:00,30.2,-8.2,29.32,ESE,110,4.0,4.0,18,0.00,,---,0.00,VWS V14.01,2013-12-05 02:20:00,
2013-12-04 18:25:00,30.2,-8.2,29.32,ESE,119,4.0,4.0,18,0.00,,---,0.00,VWS V14.01,2013-12-05 02:25:00,
2013-12-04 18:30:00,29.8,-8.5,29.32,West,263,4.9,4.9,18,0.00,,---,0.00,VWS V14.01,2013-12-05 02:30:00,
2013-12-04 18:35:00,26.2,-8.4,29.32,WSW,256,0.0,0.0,21,0.00,,---,0.00,VWS V14.01,2013-12-05 02:35:00,
2013-12-04 18:40:00,26.2,-8.4,29.32,WSW,256,0.0,0.0,21,0.00,,---,0.00,VWS V14.01,2013-12-05 02:40:00,
2013-12-04 18:45:00,24.4,-8.9,29.32,WSW,256,0.0,0.0,22,0.00,,---,0.00,VWS V14.01,2013-12-05 02:45:00,
2013-12-04 18:50:00,26.8,-6.0,29.32,WSW,256,0.0,0.0,23,0.00,,---,0.00,VWS V14.01,2013-12-05 02:50:00,
2013-12-04 18:55:00,26.2,-5.6,29.32,WSW,252,0.0,0.0,24,0.00,,---,0.00,VWS V14.01,2013-12-05 02:55:00,
2013-12-04 19:00:00,26.2,-5.6,29.32,WSW,252,0.0,0.0,24,0.00,,---,0.00,VWS V14.01,2013-12-05 03:00:00,
2013-12-04 19:05:00,25.0,-6.7,29.32,WSW,252,0.0,0.0,24,0.00,,---,0.00,VWS V14.01,2013-12-05 03:05:00,
2013-12-04 19:10:00,25.3,-1.1,29.32,WSW,252,0.0,0.0,31,0.00,,---,0.00,VWS V14.01,2013-12-05 03:10:00,
2013-12-04 19:15:00,25.2,-2.6,29.32,ENE,77,0.0,0.0,29,0.00,,---,0.00,VWS V14.01,2013-12-05 03:15:00,
2013-12-04 19:20:00,25.7,-4.4,29.32,East,83,0.0,0.0,26,0.00,,---,0.00,VWS V14.01,2013-12-05 03:20:00,
2013-12-04 19:25:00,25.7,-4.4,29.32,East,99,0.0,0.0,26,0.00,,---,0.00,VWS V14.01,2013-12-05 03:25:00,
2013-12-04 19:30:00,25.7,-4.4,29.32,ESE,109,0.0,0.0,26,0.00,,---,0.00,VWS V14.01,2013-12-05 03:30:00,
2013-12-04 19:35:00,24.8,-2.9,29.32,WSW,244,0.0,0.0,29,0.00,,---,0.00,VWS V14.01,2013-12-05 03:35:00,
2013-12-04 19:40:00,24.8,-2.9,29.32,WSW,244,0.0,0.0,29,0.00,,---,0.00,VWS V14.01,2013-12-05 03:40:00,
2013-12-04 19:45:00,22.8,1.0,29.32,WSW,244,0.0,0.0,38,0.00,,---,0.00,VWS V14.01,2013-12-05 03:45:00,
2013-12-04 19:50:00,22.3,0.5,29.32,WSW,244,0.0,0.0,38,0.00,,---,0.00,VWS V14.01,2013-12-05 03:50:00,
2013-12-04 19:55:00,22.3,0.5,29.32,WSW,244,0.0,0.0,38,0.00,,---,0.00,VWS V14.01,2013-12-05 03:55:00,
2013-12-04 20:00:00,24.8,1.0,29.32,WSW,244,0.0,0.0,35,0.00,,---,0.00,VWS V14.01,2013-12-05 04:00:00,
2013-12-04 20:05:00,24.8,1.0,29.32,WSW,244,0.0,0.0,35,0.00,,---,0.00,VWS V14.01,2013-12-05 04:05:00,
2013-12-04 20:10:00,23.4,-0.2,29.32,WSW,244,0.0,0.0,35,0.00,,---,0.00,VWS V14.01,2013-12-05 04:10:00,
2013-12-04 20:15:00,23.4,-0.2,29.32,WSW,244,0.0,0.0,35,0.00,,---,0.00,VWS V14.01,2013-12-05 04:15:00,
2013-12-04 20:20:00,23.2,1.4,29.32,WSW,244,0.0,0.0,38,0.00,,---,0.00,VWS V14.01,2013-12-05 04:20:00,
2013-12-04 20:25:00,22.5,0.7,29.32,WSW,244,0.0,0.0,38,0.00,,---,0.00,VWS V14.01,2013-12-05 04:25:00,
2013-12-04 20:30:00,21.2,-0.4,29.32,WSW,244,0.0,0.0,38,0.00,,---,0.00,VWS V14.01,2013-12-05 04:30:00,
2013-12-04 20:35:00,21.9,0.8,29.32,WSW,244,0.0,0.0,39,0.00,,---,0.00,VWS V14.01,2013-12-05 04:35:00,
2013-12-04 20:40:00,21.9,1.3,29.32,WSW,244,0.0,0.0,40,0.00,,---,0.00,VWS V14.01,2013-12-05 04:40:00,
2013-12-04 20:45:00,21.9,1.3,29.32,WSW,244,0.0,0.0,40,0.00,,---,0.00,VWS V14.01,2013-12-05 04:45:00,
2013-12-04 20:50:00,21.4,1.4,29.32,WSW,244,0.0,0.0,41,0.00,,---,0.00,VWS V14.01,2013-12-05 04:50:00,
2013-12-04 20:55:00,21.9,1.8,29.32,WSW,244,0.0,0.0,41,0.00,,---,0.00,VWS V14.01,2013-12-05 04:55:00,
2013-12-04 21:00:00,22.5,1.8,29.32,WSW,244,0.0,0.0,40,0.00,,---,0.00,VWS V14.01,2013-12-05 05:00:00,
2013-12-04 21:01:00,22.5,1.3,29.32,WSW,244,0.0,0.0,39,0.00,,---,0.00,VWS V14.01,2013-12-05 05:01:00,
2013-12-04 21:06:00,22.8,1.6,29.32,ESE,107,2.7,2.7,39,0.00,,---,0.00,VWS V14.01,2013-12-05 05:06:00,
2013-12-04 21:11:00,22.8,1.6,29.32,ESE,107,2.2,2.2,39,0.00,,---,0.00,VWS V14.01,2013-12-05 05:11:00,
2013-12-04 21:16:00,22.8,-0.7,29.32,ESE,104,2.7,2.7,35,0.00,,---,0.00,VWS V14.01,2013-12-05 05:16:00,
2013-12-04 21:21:00,22.8,-0.7,29.32,ESE,104,0.0,0.0,35,0.00,,---,0.00,VWS V14.01,2013-12-05 05:21:00,
2013-12-04 21:26:00,21.6,-0.7,29.32,ESE,104,0.0,0.0,37,0.00,,---,0.00,VWS V14.01,2013-12-05 05:26:00,
2013-12-04 21:31:00,21.2,0.7,29.32,ESE,104,0.0,0.0,40,0.00,,---,0.00,VWS V14.01,2013-12-05 05:31:00,
2013-12-04 21:36:00,21.2,0.7,29.32,ESE,104,0.0,0.0,40,0.00,,---,0.00,VWS V14.01,2013-12-05 05:36:00,
2013-12-04 21:41:00,20.3,0.4,29.32,ESE,104,0.0,0.0,41,0.00,,---,0.00,VWS V14.01,2013-12-05 05:41:00,
2013-12-04 21:46:00,20.5,1.0,29.32,ESE,104,0.0,0.0,42,0.00,,---,0.00,VWS V14.01,2013-12-05 05:46:00,
2013-12-04 21:51:00,21.2,2.2,29.32,ESE,104,0.0,0.0,43,0.00,,---,0.00,VWS V14.01,2013-12-05 05:51:00,
2013-12-04 21:56:00,21.4,2.4,29.32,ESE,104,0.0,0.0,43,0.00,,---,0.00,VWS V14.01,2013-12-05 05:56:00,
2013-12-04 22:01:00,20.7,1.7,29.32,ESE,104,0.0,0.0,43,0.00,,---,0.00,VWS V14.01,2013-12-05 06:01:00,
2013-12-04 22:06:00,20.7,1.7,29.32,ESE,104,0.0,0.0,43,0.00,,---,0.00,VWS V14.01,2013-12-05 06:06:00,
2013-12-04 22:11:00,20.7,1.2,29.32,ESE,104,0.0,0.0,42,0.00,,---,0.00,VWS V14.01,2013-12-05 06:11:00,
2013-12-04 22:16:00,20.7,1.7,29.32,ESE,104,0.0,0.0,43,0.00,,---,0.00,VWS V14.01,2013-12-05 06:16:00,
2013-12-04 22:21:00,20.3,1.4,29.32,ESE,104,0.0,0.0,43,0.00,,---,0.00,VWS V14.01,2013-12-05 06:21:00,
2013-12-04 22:26:00,20.5,1.5,29.32,ESE,104,0.0,0.0,43,0.00,,---,0.00,VWS V14.01,2013-12-05 06:26:00,
2013-12-04 22:31:00,20.3,1.4,29.32,ESE,104,0.0,0.0,43,0.00,,---,0.00,VWS V14.01,2013-12-05 06:31:00,
2013-12-04 22:36:00,19.4,0.6,29.32,ESE,104,0.0,0.0,43,0.00,,---,0.00,VWS V14.01,2013-12-05 06:36:00,
2013-12-04 22:41:00,19.2,0.4,29.32,ESE,104,0.0,0.0,43,0.00,,---,0.00,VWS V14.01,2013-12-05 06:41:00,
2013-12-04 22:47:00,19.9,1.1,29.32,ESE,104,0.0,0.0,43,0.00,,---,0.00,VWS V14.01,2013-12-05 06:47:00,
2013-12-04 22:52:00,18.9,0.6,29.32,ESE,104,0.0,0.0,44,0.00,,---,0.00,VWS V14.01,2013-12-05 06:52:00,
2013-12-04 22:57:00,18.7,0.4,29.32,SSE,156,0.0,0.0,44,0.00,,---,0.00,VWS V14.01,2013-12-05 06:57:00,
2013-12-04 23:02:00,19.2,0.9,29.32,SSE,156,0.0,0.0,44,0.00,,---,0.00,VWS V14.01,2013-12-05 07:02:00,
2013-12-04 23:07:00,19.4,1.1,29.32,SSE,156,0.0,0.0,44,0.00,,---,0.00,VWS V14.01,2013-12-05 07:07:00,
2013-12-04 23:12:00,18.5,0.2,29.32,SSE,156,0.0,0.0,44,0.00,,---,0.00,VWS V14.01,2013-12-05 07:12:00,
2013-12-04 23:17:00,18.3,0.1,29.32,SSE,156,0.0,0.0,44,0.00,,---,0.00,VWS V14.01,2013-12-05 07:17:00,
2013-12-04 23:22:00,18.9,0.6,29.32,SSE,156,0.0,0.0,44,0.00,,---,0.00,VWS V14.01,2013-12-05 07:22:00,
2013-12-04 23:27:00,19.2,1.4,29.32,SSE,156,0.0,0.0,45,0.00,,---,0.00,VWS V14.01,2013-12-05 07:27:00,
2013-12-04 23:32:00,19.4,1.1,29.32,SSE,151,0.0,0.0,44,0.00,,---,0.00,VWS V14.01,2013-12-05 07:32:00,
2013-12-04 23:37:00,20.1,1.2,29.32,SSE,151,0.0,0.0,43,0.00,,---,0.00,VWS V14.01,2013-12-05 07:37:00,
2013-12-04 23:42:00,20.7,1.7,29.32,SSE,151,0.0,0.0,43,0.00,,---,0.00,VWS V14.01,2013-12-05 07:42:00,
2013-12-04 23:47:00,21.9,0.8,29.32,ESE,111,4.0,4.0,39,0.00,,---,0.00,VWS V14.01,2013-12-05 07:47:00,
2013-12-04 23:52:00,21.6,-1.9,29.32,ESE,111,4.9,5.8,35,0.00,,---,0.00,VWS V14.01,2013-12-05 07:52:00,
2013-12-04 23:57:00,21.6,-1.9,29.32,ESE,111,4.5,4.5,35,0.00,,---,0.00,VWS V14.01,2013-12-05 07:57:00,